IU1DOF-3 Weather Reports


Display with metric or nautical units.
time (UTC)temp
F
wind
direction
speed
MPH
gust
MPH
rain 1hr
in
rain 24hr
in
rain mn
in
humidity
%
barometer
mb
20260902130016 79 272 1.0 2.0 0.00 0.00 0.00 65 1017.9
20260902124952 79 263 1.0 3.0 0.00 0.00 0.00 64 1017.6
20260902123941 79 298 0.0 0.0 0.00 0.00 0.00 68 1017.6
20260902122919 79 261 7.0 8.0 0.00 0.00 0.00 63 1017.9
20260902121856 79 260 2.0 2.0 0.00 0.00 0.00 65 1017.7
20260902120840 79 282 0.0 2.0 0.00 0.00 0.00 68 1018.0
20260902115824 77 272 2.0 3.0 0.00 0.00 0.00 68 1018.3
20260902114759 78 294 0.0 1.0 0.00 0.00 0.00 68 1018.4
20260902113741 78 275 0.0 1.0 0.00 0.00 0.00 66 1018.1
20260902112727 79 266 1.0 2.0 0.00 0.00 0.00 66 1018.6
20260902111703 79 274 0.0 1.0 0.00 0.00 0.00 66 1018.2
20260902110640 77 277 0.0 0.0 0.00 0.00 0.00 69 1018.5
20260902105615 78 276 0.0 1.0 0.00 0.00 0.00 67 1018.6
20260902104551 77 279 1.0 2.0 0.00 0.00 0.00 67 1018.8
20260902103540 78 270 1.0 2.0 0.00 0.00 0.00 65 1018.8
20260902102519 77 266 1.0 1.0 0.00 0.00 0.00 65 1018.9
20260902101456 77 274 0.0 1.0 0.00 0.00 0.00 72 1019.2
20260902100441 75 272 0.0 1.0 0.00 0.00 0.00 69 1019.3
20260902095423 74 273 0.0 1.0 0.00 0.00 0.00 67 1019.3
20260902094359 72 274 0.0 1.0 0.00 0.00 0.00 66 1019.4
20260902093340 72 274 0.0 0.0 0.00 0.00 0.00 68 1019.1
20260902092327 73 274 0.0 1.0 0.00 0.00 0.00 66 1019.4
20260902091304 73 273 0.0 0.0 0.00 0.00 0.00 67 1019.3
20260902090240 74 275 0.0 0.0 0.00 0.00 0.00 60 1019.4
20260902085215 74 199 2.0 2.0 0.00 0.00 0.00 58 1019.2
20260902084152 72 277 0.0 0.0 0.00 0.00 0.00 62 1019.1
20260902083142 72 277 0.0 0.0 0.00 0.00 0.00 58 1019.4
20260902082120 73 278 0.0 0.0 0.00 0.00 0.00 55 1019.1
20260902081055 70 278 0.0 1.0 0.00 0.00 0.00 61 1019.3
20260902080041 71 279 0.0 0.0 0.00 0.00 0.00 59 1019.3
20260902075025 70 277 0.0 0.0 0.00 0.00 0.00 59 1019.3
20260902073959 69 304 0.0 0.0 0.00 0.00 0.00 62 1019.2
20260902072941 68 305 0.0 0.0 0.00 0.00 0.00 61 1019.2
20260902071928 66 305 0.0 0.0 0.00 0.00 0.00 62 1019.4
20260902070920 66 305 0.0 0.0 0.00 0.00 0.00 64 1019.4
20260902065856 64 275 0.0 0.0 0.00 0.00 0.00 71 1019.3
20260902064847 66 275 0.0 0.0 0.00 0.00 0.00 68 1019.2
20260902063840 65 275 0.0 0.0 0.00 0.00 0.00 71 1019.3
20260902062831 61 276 0.0 0.0 0.00 0.00 0.00 75 1019.3
20260902061808 61 275 0.0 0.0 0.00 0.00 0.00 81 1019.4
20260902060759 60 275 0.0 0.0 0.00 0.00 0.00 78 1019.3
20260902055751 58 303 0.0 0.0 0.00 0.00 0.00 83 1018.9
20260902054743 56 305 1.0 2.0 0.00 0.00 0.00 84 1018.8
20260902053735 56 305 0.0 0.0 0.00 0.00 0.00 85 1019.1
20260902052727 56 305 2.0 2.0 0.00 0.00 0.00 85 1019.2
20260902051719 55 305 0.0 0.0 0.00 0.00 0.00 87 1019.2
20260902050656 55 285 0.0 0.0 0.00 0.00 0.00 84 1019.0
20260902045641 56 307 0.0 1.0 0.00 0.00 0.00 82 1018.9
20260902044624 55 306 0.0 0.0 0.00 0.00 0.00 84 1018.8
20260902043559 56 305 0.0 0.0 0.00 0.00 0.00 83 1018.6
20260902042540 56 306 0.0 0.0 0.00 0.00 0.00 84 1018.8
20260902041528 55 304 0.0 0.0 0.00 0.00 0.00 84 1018.7
20260902040505 55 308 0.0 1.0 0.00 0.00 0.00 85 1018.3
20260902035455 57 303 0.0 0.0 0.00 0.00 0.00 81 1018.7
20260902034440 56 306 2.0 2.0 0.00 0.00 0.00 82 1018.7
20260902033424 56 305 1.0 1.0 0.00 0.00 0.00 84 1018.8
20260902032359 56 309 0.0 0.0 0.00 0.00 0.00 86 1018.7
20260902031335 57 303 0.0 0.0 0.00 0.00 0.00 85 1018.7
20260902030328 57 305 2.0 2.0 0.00 0.00 0.00 85 1019.0
20260902025319 57 293 1.0 2.0 0.00 0.00 0.00 87 1018.8
20260902024257 57 305 0.0 0.0 0.00 0.00 0.00 84 1019.0
20260902023241 58 305 0.0 0.0 0.00 0.00 0.00 84 1018.9
20260902022224 58 305 0.0 1.0 0.00 0.00 0.00 84 1018.6
20260902021159 58 306 0.0 0.0 0.00 0.00 0.00 83 1018.6
20260902020138 58 305 0.0 0.0 0.00 0.00 0.00 84 1018.6
20260902015056 59 305 1.0 2.0 0.00 0.00 0.00 84 1018.5
20260902014041 58 305 1.0 2.0 0.00 0.00 0.00 86 1018.7
20260902013024 58 287 0.0 1.0 0.00 0.00 0.00 85 1018.6
20260902012000 58 305 2.0 2.0 0.00 0.00 0.00 85 1018.5
20260902010935 58 305 0.0 0.0 0.00 0.00 0.00 86 1018.8
20260902005911 58 305 1.0 2.0 0.00 0.00 0.00 86 1018.6
20260902004848 59 293 0.0 0.0 0.00 0.00 0.00 86 1018.8
20260902003839 59 305 0.0 0.0 0.00 0.00 0.00 86 1018.7
20260902002816 59 306 2.0 2.0 0.00 0.00 0.00 86 1018.6
20260902001752 59 284 1.0 1.0 0.00 0.00 0.00 85 1019.1
20260902000740 59 307 0.0 0.0 0.00 0.00 0.00 86 1018.8
20260901235720 59 305 0.0 0.0 0.00 0.00 0.00 85 1018.9
20260901234656 59 305 0.0 0.0 0.00 0.00 0.00 85 1018.8
20260901233641 59 305 0.0 0.0 0.00 0.00 0.00 85 1019.2
20260901232623 60 305 2.0 2.0 0.00 0.00 0.00 84 1019.0
20260901231600 60 306 2.0 2.0 0.00 0.00 0.00 84 1019.0
20260901230540 59 305 0.0 0.0 0.00 0.00 0.00 85 1019.1
20260901225527 59 305 0.0 0.0 0.00 0.00 0.00 85 1019.1
20260901224504 60 305 0.0 0.0 0.00 0.00 0.00 85 1019.1
20260901223440 60 305 2.0 3.0 0.00 0.00 0.00 82 1019.1
20260901222417 60 305 1.0 1.0 0.00 0.00 0.00 83 1019.1
20260901221352 60 305 1.0 2.0 0.00 0.00 0.00 83 1019.1
20260901220342 61 305 2.0 2.0 0.00 0.00 0.00 82 1018.7
20260901215321 61 305 2.0 2.0 0.00 0.00 0.00 81 1018.7
20260901214256 61 305 1.0 2.0 0.00 0.00 0.00 83 1019.1
20260901213241 61 305 0.0 1.0 0.00 0.00 0.00 82 1019.1
20260901212223 61 305 0.0 0.0 0.00 0.00 0.00 81 1019.0
20260901211159 61 305 0.0 0.0 0.00 0.00 0.00 81 1018.7
20260901210141 62 306 1.0 2.0 0.00 0.00 0.00 81 1018.7
20260901205128 61 303 1.0 1.0 0.00 0.00 0.00 82 1018.9
20260901204105 62 304 0.0 0.0 0.00 0.00 0.00 81 1018.9
20260901203041 62 305 2.0 2.0 0.00 0.00 0.00 80 1018.7
20260901202016 63 305 2.0 2.0 0.00 0.00 0.00 79 1018.9
20260901200951 63 306 1.0 1.0 0.00 0.00 0.00 79 1018.9
20260901195941 63 305 2.0 2.0 0.00 0.00 0.00 78 1018.6
20260901194920 63 305 3.0 3.0 0.00 0.00 0.00 78 1018.5
20260901193856 63 305 1.0 2.0 0.00 0.00 0.00 78 1018.5
20260901192841 64 305 2.0 2.0 0.00 0.00 0.00 77 1018.4
20260901191825 64 305 1.0 2.0 0.00 0.00 0.00 77 1018.2
20260901190801 64 305 2.0 2.0 0.00 0.00 0.00 76 1018.3
20260901185741 64 303 1.0 2.0 0.00 0.00 0.00 76 1017.9
20260901184728 65 305 2.0 3.0 0.00 0.00 0.00 74 1017.8
20260901183704 65 305 2.0 2.0 0.00 0.00 0.00 76 1017.7
20260901182640 65 309 1.0 2.0 0.00 0.00 0.00 76 1017.3
20260901181616 66 292 2.0 2.0 0.00 0.00 0.00 76 1017.6
20260901180553 67 287 1.0 2.0 0.00 0.00 0.00 77 1017.3
20260901175540 66 292 1.0 1.0 0.00 0.00 0.00 78 1017.3
20260901174519 68 298 3.0 3.0 0.00 0.00 0.00 73 1017.2
20260901173458 69 305 3.0 3.0 0.00 0.00 0.00 75 1017.0
20260901172440 69 306 3.0 4.0 0.00 0.00 0.00 72 1017.0
20260901171424 70 308 3.0 3.0 0.00 0.00 0.00 71 1016.8
20260901170402 70 308 2.0 3.0 0.00 0.00 0.00 71 1016.9
20260901165340 71 295 2.0 3.0 0.00 0.00 0.00 72 1016.8
20260901164328 72 307 2.0 3.0 0.00 0.00 0.00 73 1016.7
20260901163303 72 309 2.0 3.0 0.00 0.00 0.00 67 1016.9
20260901162241 73 309 3.0 3.0 0.00 0.00 0.00 68 1016.7
20260901161217 74 309 2.0 2.0 0.00 0.00 0.00 68 1016.7
20260901160153 76 308 2.0 2.0 0.00 0.00 0.00 60 1016.7
20260901155141 78 259 1.0 3.0 0.00 0.00 0.00 52 1016.5
20260901154120 79 273 0.0 1.0 0.00 0.00 0.00 50 1016.6
20260901153057 79 277 0.0 0.0 0.00 0.00 0.00 56 1016.9
20260901152034 80 276 0.0 0.0 0.00 0.00 0.00 53 1016.5
20260901151024 80 299 0.0 2.0 0.00 0.00 0.00 51 1016.7
20260901150000 80 308 0.0 1.0 0.00 0.00 0.00 49 1016.9
20260901144952 80 290 0.0 0.0 0.00 0.00 0.00 50 1016.7
20260901143940 80 271 0.0 1.0 0.00 0.00 0.00 50 1016.7
20260901142921 80 286 1.0 2.0 0.00 0.00 0.00 49 1017.1
20260901141912 81 307 0.0 0.0 0.00 0.00 0.00 52 1017.0
20260901140903 80 293 1.0 2.0 0.00 0.00 0.00 48 1017.1
20260901135842 81 250 1.0 2.0 0.00 0.00 0.00 50 1017.0
20260901134832 81 292 1.0 2.0 0.00 0.00 0.00 48 1016.9
20260901133824 80 295 0.0 1.0 0.00 0.00 0.00 54 1017.1
20260901132816 80 272 1.0 2.0 0.00 0.00 0.00 50 1017.1
20260901131808 80 258 1.0 3.0 0.00 0.00 0.00 50 1017.1
20260901130800 80 280 2.0 3.0 0.00 0.00 0.00 51 1017.5